Theta_e
338 340 342 346 347 347 346 346 347 347 347 346 346 345 344 343 343 342 342 342 342 341 341 341 343 343 343 342 342 343 343 343 343 343 344 344 344 344 345 345 345 345 345 345 347 348 348 347 348 348 347 347 346 346 346 346 346 345 344 343 343 342 342 343 344 344 343 342 343 344 343 343 341 339 339 339 339 338 337 335 334 331 330 332 335
338 341 343 345 347 347 347 347 347 347 346 344 344 344 344 342 340 340 340 341 340 341 341 343 342 342 342 342 341 341 344 345 347 347 347 345 343 343 343 344 344 344 345 345 345 347 347 347 348 347 346 345 344 344 343 343 343 341 340 340 341 340 340 340 341 343 343 340 339 338 341 339 338 338 337 336 337 338 336 333 334 330 329 333 333
338 342 343 345 347 347 346 346 346 347 346 344 343 343 342 342 342 341 342 342 342 342 341 341 341 341 341 341 342 341 345 347 347 347 346 345 345 345 346 345 346 348 348 346 345 346 345 346 346 345 345 343 343 342 341 340 339 338 337 339 339 339 340 340 341 342 343 339 336 335 336 339 338 337 337 336 336 336 334 334 333 334 329 333 332
340 341 343 344 346 347 346 346 346 345 344 344 343 341 340 340 340 342 342 342 342 342 342 342 341 342 341 341 341 341 344 345 345 345 344 343 343 344 345 345 346 346 346 347 347 347 346 346 346 345 343 342 342 341 340 339 337 337 337 338 338 338 339 339 340 342 343 339 337 334 332 329 333 338 337 335 335 335 334 333 334 336 335 337 337
340 341 343 343 344 346 346 346 345 345 344 344 344 343 340 340 341 340 338 342 342 342 341 341 341 341 341 339 341 343 343 343 343 343 343 343 342 342 344 347 346 346 346 346 346 346 345 345 344 343 342 342 341 340 339 339 338 337 337 338 337 338 338 338 339 343 340 338 337 333 328 328 329 335 336 336 334 333 333 332 332 334 336 335 336
337 340 342 343 343 344 346 346 345 345 345 343 342 342 342 342 342 340 339 339 339 340 340 340 341 343 342 343 341 341 343 345 345 344 345 345 345 344 343 345 345 345 345 346 346 346 345 345 343 342 341 340 340 339 339 338 337 336 336 336 337 337 338 340 341 338 339 338 335 329 328 328 328 331 337 336 334 334 333 333 332 333 334 333 334
335 339 342 343 343 343 344 345 344 344 343 342 342 341 343 344 343 341 340 339 342 341 340 341 342 342 342 341 339 339 341 343 343 343 343 345 346 346 345 345 346 345 346 345 345 344 344 344 343 341 340 339 339 338 339 338 336 336 336 337 338 338 339 339 341 337 336 332 327 328 327 327 327 328 334 335 336 337 333 333 333 332 333 333 333
332 336 341 342 342 344 343 344 344 344 343 342 342 343 343 346 344 342 340 339 338 339 340 339 338 338 338 339 338 339 340 343 344 343 342 346 346 345 345 344 345 344 344 344 344 343 344 343 342 340 340 338 338 337 337 337 336 335 336 337 338 338 339 339 339 334 334 328 327 327 327 327 327 328 333 334 335 336 335 335 334 334 334 335 333
331 336 342 342 342 343 344 343 343 343 342 341 342 344 346 346 344 342 341 340 339 338 337 338 339 340 341 339 338 338 339 340 341 342 343 345 345 345 344 344 343 343 344 343 344 343 343 342 341 341 339 338 337 336 335 336 334 334 335 337 337 338 339 341 336 334 330 327 327 327 326 326 326 326 333 333 334 334 334 333 333 332 333 334 333
331 333 341 342 343 342 343 343 343 343 342 340 342 344 344 344 343 342 340 338 337 337 336 337 342 341 341 340 340 340 339 340 342 341 342 342 343 343 343 342 342 341 341 341 341 342 342 342 341 340 339 337 337 335 335 335 334 334 335 336 336 338 338 337 334 332 327 326 326 327 328 332 326 327 331 334 333 332 332 333 332 333 331 331 332
330 332 339 341 343 342 344 343 344 344 341 341 342 344 343 342 342 341 340 338 339 341 341 342 342 341 341 341 341 341 341 340 341 342 342 342 343 343 343 343 342 342 342 341 341 342 342 341 341 339 338 337 335 334 334 334 334 334 335 335 336 337 336 337 333 328 327 325 324 325 329 332 326 326 333 334 334 331 333 333 331 331 331 330 331
329 332 338 340 344 341 344 344 343 341 341 341 342 344 343 342 341 341 341 340 340 343 343 342 342 342 342 342 342 342 342 341 341 342 343 343 343 342 342 342 342 341 341 340 340 340 341 341 341 338 337 336 334 334 334 333 333 333 334 334 334 335 336 335 329 326 326 326 326 325 325 326 326 329 332 333 333 332 331 335 332 333 332 331 330
330 335 335 336 338 340 343 344 343 342 342 342 343 342 341 341 340 341 342 340 342 342 342 342 342 342 342 342 341 340 340 340 340 343 342 342 341 341 341 341 341 341 341 340 340 340 340 340 339 338 337 335 334 334 333 333 332 332 333 333 333 333 333 332 328 326 325 325 325 325 327 327 326 332 332 333 333 332 331 334 333 333 332 331 330
332 334 334 335 340 345 340 342 343 344 343 342 341 341 340 339 340 342 341 339 339 340 342 343 342 340 340 339 339 338 338 338 339 341 341 341 341 341 341 340 340 340 340 340 339 339 339 339 339 337 336 335 334 333 333 332 332 332 332 332 333 333 330 329 330 325 326 325 327 327 329 332 328 332 333 333 333 333 332 331 332 333 333 331 331
333 332 333 338 340 340 342 339 342 343 344 343 342 341 340 341 342 342 340 339 338 338 338 338 338 338 337 337 338 338 338 338 338 338 340 340 340 340 341 340 340 340 340 340 339 339 338 338 338 337 336 335 333 333 332 332 332 331 331 332 333 331 328 328 327 325 327 327 327 328 327 329 336 333 333 333 333 334 333 332 331 332 332 331 331
333 333 334 333 337 340 340 342 337 339 341 341 341 341 343 344 344 342 340 339 338 338 338 337 337 337 337 339 340 340 341 341 341 340 341 341 341 341 340 340 339 339 339 339 339 338 338 338 338 337 335 335 334 333 332 331 330 330 331 331 330 330 327 325 324 323 322 326 326 325 323 328 336 332 333 333 332 332 333 332 332 331 331 331 330
333 332 331 331 337 339 340 340 337 334 334 336 337 339 341 344 344 343 341 340 340 339 337 338 338 337 341 340 341 340 340 340 340 340 340 339 340 341 339 337 338 338 338 338 338 338 338 337 337 336 336 335 334 333 332 331 330 330 330 329 330 329 326 323 326 323 323 326 326 323 324 328 335 336 336 336 334 333 333 332 332 332 332 332 331
333 332 331 332 333 337 338 339 338 340 337 334 332 336 340 341 342 342 342 342 342 343 340 341 342 341 340 339 338 339 338 338 338 339 339 338 336 337 339 338 338 338 337 337 337 337 337 336 336 335 335 334 333 333 332 331 331 330 330 329 329 327 324 323 325 323 324 327 324 324 326 333 335 336 336 336 335 333 333 332 331 331 331 331 331
330 330 332 332 331 336 336 339 338 339 339 336 335 334 334 338 340 340 340 340 340 340 339 337 338 339 338 336 335 333 333 333 334 335 335 336 335 332 337 337 336 337 336 336 337 336 336 335 335 335 335 334 333 332 332 330 329 331 329 328 327 324 322 322 324 323 323 323 323 323 327 333 334 335 336 335 336 334 332 331 331 331 331 332 331
328 330 331 331 331 330 336 336 336 338 337 336 335 333 331 333 336 337 337 337 337 337 335 334 333 333 332 331 330 329 328 329 329 330 331 332 331 330 332 335 336 335 335 336 335 334 334 334 333 333 333 333 332 332 331 329 328 329 328 326 324 320 322 323 324 324 323 323 324 323 330 332 334 335 336 336 336 335 335 335 335 334 334 334 333
329 329 329 330 331 330 333 332 332 338 338 337 335 334 331 330 331 331 332 334 334 333 332 327 326 325 326 325 328 331 330 329 330 330 326 326 324 326 331 335 336 335 335 335 334 333 332 332 332 332 331 332 330 330 330 330 328 328 326 323 319 320 324 323 325 324 324 322 324 324 331 331 333 335 335 336 335 335 335 334 334 334 334 334 335
325 326 327 330 330 329 329 332 332 333 336 339 337 334 332 333 334 332 332 330 328 327 329 331 333 329 324 326 330 329 329 330 329 334 328 327 324 324 329 334 335 334 335 334 335 333 332 331 332 330 330 329 327 321 321 325 328 328 324 320 319 322 323 323 324 323 323 323 323 327 330 330 332 334 334 335 336 335 334 334 335 335 334 335 334
324 325 326 329 329 329 328 330 333 333 334 338 338 334 332 332 333 334 333 329 332 332 332 332 331 331 329 329 329 328 328 328 329 331 330 323 325 324 328 330 332 332 334 334 333 333 332 332 331 329 329 329 321 322 323 321 320 321 319 319 323 323 324 324 322 323 322 323 322 329 330 330 331 333 334 334 334 334 334 334 335 334 334 334 335
324 325 326 329 330 328 328 328 330 332 332 336 336 333 332 332 332 330 332 332 332 332 331 332 331 332 331 330 330 329 330 329 330 331 329 325 320 318 322 323 326 327 329 329 330 331 331 331 328 329 327 324 321 323 325 326 324 322 322 324 323 324 323 322 322 324 325 325 323 328 329 329 331 331 332 333 333 333 333 333 334 334 334 334 334
325 325 325 327 329 329 328 329 329 330 331 331 335 333 332 330 329 329 329 328 331 330 330 331 330 332 331 330 328 329 330 329 328 328 327 327 325 325 323 325 325 324 322 326 325 325 324 324 323 321 321 324 324 322 322 321 322 323 324 324 323 324 323 323 323 323 323 324 322 325 327 329 330 331 332 333 334 333 333 333 334 334 334 334 334
327 324 323 325 327 329 329 329 329 329 331 329 331 330 330 327 327 329 328 326 329 328 328 330 330 331 330 330 329 329 329 327 326 325 326 326 326 325 325 326 325 326 323 326 326 325 322 325 324 323 322 322 322 322 322 322 323 323 324 325 325 324 326 325 324 323 323 322 321 323 326 329 329 330 332 333 333 333 333 333 333 334 334 334 333
326 325 325 325 327 327 329 329 328 328 329 329 329 328 328 327 327 328 327 325 328 327 327 328 329 330 330 329 328 327 327 326 326 325 326 326 326 325 325 326 326 326 324 324 325 324 323 323 322 323 319 322 322 322 324 324 323 323 323 324 324 324 323 323 322 322 321 322 319 321 327 327 328 329 331 331 332 333 332 332 333 334 334 333 334
326 327 325 325 325 326 329 330 329 328 328 328 327 327 327 327 328 327 328 325 327 326 326 327 329 329 329 329 326 328 327 326 327 327 326 327 326 327 327 326 327 327 324 325 324 321 322 321 320 320 321 322 323 324 324 325 325 323 324 324 324 323 322 323 321 321 320 322 322 319 323 325 326 328 329 330 331 331 332 332 333 334 334 334 333
326 328 327 325 326 326 328 329 329 328 328 328 327 327 327 328 327 327 326 326 327 327 327 328 328 328 329 329 327 328 328 327 327 326 325 325 326 327 325 324 326 325 325 323 324 322 321 320 321 322 322 324 323 324 323 324 324 324 323 323 323 321 322 321 320 322 322 322 322 319 321 324 325 326 328 329 329 330 331 331 330 331 332 332 332
328 328 328 327 326 326 327 328 329 329 328 328 327 327 327 326 327 327 327 326 326 327 328 327 327 328 328 329 329 328 328 327 327 325 325 325 325 325 324 323 324 324 324 323 323 322 322 322 322 324 323 323 324 324 323 322 323 323 323 323 322 322 321 320 320 322 322 322 322 318 319 322 324 325 327 327 328 329 328 328 327 328 329 330 331
328 328 328 329 326 325 326 327 328 327 328 327 327 327 327 327 327 328 327 326 326 327 327 328 327 329 329 330 329 328 328 327 327 326 326 326 326 326 325 324 324 323 325 325 325 324 323 323 323 323 323 323 322 322 322 322 321 321 322 323 322 322 321 322 321 322 323 322 322 320 318 319 321 324 326 327 326 325 325 325 326 327 328 328 328
327 328 329 330 329 326 326 327 327 328 327 327 327 327 328 328 328 328 327 327 327 326 326 328 326 327 328 330 329 329 327 327 328 328 327 326 325 324 324 324 324 324 325 324 323 324 324 324 323 324 324 323 321 320 322 322 320 321 320 321 321 321 321 321 322 322 322 323 324 322 319 317 317 320 323 324 324 323 323 323 325 325 326 326 327
328 329 330 330 330 328 326 326 326 327 327 327 327 328 328 329 328 328 328 329 327 327 327 327 327 327 327 330 330 329 328 326 326 328 326 326 325 324 324 325 326 326 325 325 324 324 323 324 323 324 323 321 322 322 322 322 321 322 321 320 320 320 320 320 321 322 322 323 322 319 320 317 315 316 318 320 321 320 320 322 324 324 325 325 326
327 328 330 330 331 332 329 327 326 326 326 327 328 328 328 328 328 328 327 329 327 326 327 327 326 326 327 328 329 329 327 326 326 325 327 325 325 324 324 325 326 326 325 326 324 323 323 324 325 323 322 323 321 321 320 319 320 320 320 321 321 320 320 321 322 323 321 322 320 318 318 318 316 314 314 316 318 318 318 321 323 323 324 324 325
327 328 330 330 330 332 331 329 326 327 325 326 327 328 328 328 327 328 327 328 328 327 327 327 327 327 327 327 329 327 326 326 324 326 326 325 323 323 324 325 327 326 325 326 325 325 324 324 322 323 322 321 321 321 319 317 317 319 320 319 321 322 321 321 322 322 321 320 320 318 318 316 317 314 312 310 312 314 316 320 322 323 323 324 323
328 329 330 330 330 331 330 330 328 327 326 326 326 328 328 328 328 326 327 329 328 327 327 328 328 328 327 327 328 328 326 326 324 325 325 324 321 323 325 327 326 326 326 325 326 324 324 324 323 323 319 319 318 319 318 318 317 317 317 318 318 319 320 321 321 321 320 319 319 317 317 315 314 314 312 312 310 311 314 317 319 320 321 321 320
329 329 330 330 329 330 329 330 329 329 328 327 326 326 327 327 328 328 328 329 328 327 327 327 328 328 327 327 328 328 327 327 325 324 325 323 321 324 325 327 327 326 325 324 324 324 322 323 322 321 321 318 318 318 319 318 317 317 317 318 318 319 319 321 320 320 319 317 317 317 317 314 313 313 312 312 310 309 310 313 315 315 317 317 314
330 330 330 330 330 330 330 330 330 330 330 329 327 327 328 328 328 328 326 329 328 327 327 327 327 327 327 327 328 328 327 328 326 326 325 324 323 324 325 327 327 327 325 325 324 324 323 321 320 321 323 321 318 317 317 318 321 321 319 318 318 318 319 320 318 315 317 317 317 316 317 314 313 312 311 311 311 309 307 310 312 311 311 310 309
330 330 330 330 330 329 329 328 329 331 331 331 329 329 328 327 327 328 327 327 328 328 327 327 328 327 327 327 328 328 327 328 328 327 326 324 325 325 326 326 327 326 326 325 324 323 322 321 320 320 322 322 320 319 319 318 320 321 320 319 318 319 318 316 315 315 315 316 317 316 317 315 313 310 309 307 306 308 306 305 304 304 306 308 307
330 330 329 329 329 329 328 329 328 330 331 331 331 330 329 327 326 326 326 326 328 327 328 328 328 328 328 328 328 329 328 328 329 328 327 324 324 325 326 327 327 327 325 324 322 322 321 320 320 320 318 319 321 320 319 318 317 317 315 317 318 318 319 317 316 315 316 315 315 314 314 314 312 308 306 305 305 304 306 306 304 304 304 306 304
328 329 328 328 329 329 328 328 329 329 329 329 330 330 328 328 328 327 327 328 328 328 328 329 329 329 328 329 328 328 328 328 328 329 328 324 325 325 327 327 327 326 326 324 323 322 323 322 321 320 320 318 318 321 320 319 316 314 315 316 317 317 315 315 316 315 316 315 315 313 310 310 306 305 304 304 303 302 302 304 305 304 303 300 300
327 328 327 328 329 329 328 328 329 329 329 329 329 329 329 329 328 328 328 328 328 327 327 329 329 330 330 329 328 328 329 329 327 329 328 327 326 326 326 327 327 326 325 325 324 321 323 323 323 319 321 320 318 321 322 319 313 312 309 312 314 314 314 315 314 314 314 313 313 313 309 306 304 304 305 304 302 302 302 303 303 304 303 303 299
327 327 328 328 328 328 328 328 329 329 328 328 329 328 330 330 330 329 329 328 330 330 329 329 329 329 330 330 329 329 329 330 329 329 329 328 327 327 327 327 327 327 325 325 324 324 324 324 323 322 319 320 321 320 320 319 310 310 310 310 308 308 311 312 312 314 315 313 313 311 308 305 305 304 303 303 302 302 303 302 301 301 302 300 295
325 326 327 327 328 328 328 328 328 329 329 328 326 329 329 329 329 329 329 329 327 328 330 330 329 329 329 330 330 330 329 329 331 330 330 330 329 328 328 328 328 328 327 326 325 324 324 324 324 323 322 319 319 318 320 319 315 312 308 307 304 306 303 307 309 312 314 313 313 311 307 305 303 301 301 301 301 302 302 302 300 300 300 298 295
325 326 326 327 328 328 328 328 328 328 328 327 326 327 326 326 328 328 326 328 328 328 328 328 329 328 329 329 331 331 331 330 331 332 330 330 331 330 329 329 329 329 328 327 326 326 325 325 325 324 323 320 317 316 318 319 316 317 310 306 305 305 303 305 310 309 311 310 309 306 303 302 301 300 299 299 300 301 302 300 300 300 298 297 296
324 325 326 327 327 327 328 328 328 328 328 327 327 326 325 326 325 325 324 325 324 325 325 326 327 327 327 329 330 332 331 331 331 332 332 330 331 331 331 330 329 329 328 328 327 326 326 325 325 325 323 323 319 317 315 316 318 318 318 313 310 307 304 305 307 301 308 309 308 304 302 301 300 299 299 299 299 300 301 301 298 298 297 295 294
324 325 325 326 326 326 327 328 328 328 328 327 327 325 326 326 326 326 326 325 324 326 327 327 328 328 328 328 329 331 331 331 331 332 333 332 331 331 331 331 330 329 328 328 327 326 326 326 326 325 324 323 320 317 316 315 314 315 316 318 313 312 312 307 304 304 303 306 306 301 300 301 299 299 299 299 298 299 301 300 298 297 295 294 293
323 324 324 325 325 325 326 327 328 327 328 329 328 327 326 326 325 326 325 326 325 325 327 327 328 328 329 329 328 329 331 331 331 332 332 333 331 331 332 331 330 329 327 329 328 327 327 327 326 326 325 323 322 320 316 316 315 314 315 316 315 315 315 312 310 306 301 302 303 304 301 301 299 298 298 297 297 298 300 299 298 296 294 293 292
321 323 324 324 325 325 325 326 327 327 328 328 328 327 326 326 326 326 325 325 326 326 325 326 326 326 328 328 328 329 329 331 332 331 332 332 329 330 330 331 330 330 327 328 328 328 327 327 325 325 325 323 323 322 320 316 316 315 315 315 316 315 314 314 311 308 302 301 301 300 298 299 297 295 296 296 297 298 299 299 297 296 295 294 292
319 321 322 323 324 324 324 325 326 327 327 328 327 328 326 325 325 325 325 325 324 325 324 324 325 326 326 326 327 328 328 328 329 330 331 331 330 329 330 330 330 330 326 329 328 328 328 327 326 325 325 324 324 323 322 319 317 317 316 316 314 312 312 311 311 309 306 304 299 300 299 296 294 293 295 295 296 297 299 298 297 296 295 294 291
313 317 319 322 323 324 324 324 325 326 326 327 328 328 327 326 326 325 325 324 324 324 323 323 323 323 325 325 325 325 327 328 328 328 330 330 331 329 329 330 330 329 327 328 329 329 328 327 326 326 325 325 323 323 321 321 318 317 316 316 315 314 313 310 310 309 307 301 300 300 299 296 295 292 293 294 295 297 299 299 297 295 294 291 290
Wind_Speed
7 10 7 10 12 12 13 13 13 11 13 14 13 14 13 13 13 12 13 12 13 13 12 12 14 13 12 11 13 15 14 14 14 13 13 14 15 16 16 16 16 17 17 18 19 17 19 19 20 20 21 20 19 19 19 19 19 18 18 17 17 17 16 16 16 17 21 22 22 22 20 21 21 19 19 19 19 18 15 17 15 11 8 13 18
9 8 8 8 12 12 12 13 13 13 13 14 13 13 13 13 12 11 11 12 12 11 13 13 13 14 13 12 12 13 16 15 16 16 16 15 15 14 15 16 16 16 17 17 18 18 19 19 20 20 19 18 18 18 18 18 17 17 16 16 16 15 15 13 13 13 16 19 20 20 21 20 19 20 19 19 19 19 15 17 16 7 7 16 17
8 10 8 9 12 12 12 12 13 13 14 13 13 13 12 11 12 12 13 12 12 12 13 13 13 13 12 13 15 14 15 15 16 15 15 15 15 15 16 16 17 16 17 18 18 18 19 19 19 19 18 18 17 17 17 17 16 17 17 16 16 15 14 13 12 9 7 17 19 19 17 20 20 20 20 19 18 18 16 16 16 14 11 18 15
11 9 8 8 10 10 12 13 13 13 13 13 13 12 12 11 11 14 12 12 12 13 14 14 15 14 13 14 14 14 15 15 16 15 14 13 13 14 14 16 17 17 17 18 19 19 20 19 19 18 17 17 17 17 16 16 17 17 17 16 15 14 13 13 12 10 10 16 17 12 7 6 10 19 20 19 19 18 15 17 18 19 20 19 20
12 9 9 7 7 9 11 13 13 13 12 12 12 12 12 11 13 13 11 14 12 13 13 13 13 13 13 12 13 14 14 14 14 14 14 14 14 13 16 17 17 17 17 19 19 19 19 19 18 18 17 17 17 16 16 16 16 16 15 15 14 14 13 12 11 8 7 16 15 10 8 8 7 17 19 17 18 17 16 17 17 17 16 18 17
10 9 9 8 7 6 10 11 13 13 12 12 11 11 10 11 11 11 10 12 10 12 12 12 13 13 14 13 12 12 14 15 15 14 14 14 14 13 14 14 16 16 17 18 18 18 18 18 17 17 17 17 16 16 16 15 15 15 15 14 14 14 14 14 12 16 13 12 14 8 8 8 7 9 18 16 15 17 17 17 17 17 17 16 14
8 8 10 9 6 6 11 11 13 13 13 13 12 11 11 11 11 11 11 10 14 12 12 13 13 12 12 13 12 11 13 13 13 14 14 13 13 14 15 16 15 16 17 18 18 18 17 18 17 17 17 16 16 16 15 15 14 14 14 14 13 13 14 13 12 16 15 10 7 7 7 5 5 6 17 15 18 20 17 18 18 16 19 17 16
6 7 9 9 6 6 10 11 12 12 12 11 12 11 11 11 11 10 11 10 11 12 12 12 11 11 12 12 12 11 12 14 14 13 13 15 13 13 14 16 16 16 17 17 17 17 17 17 17 16 16 16 16 16 15 15 14 14 13 14 14 14 14 12 8 16 14 9 6 7 6 4 3 6 15 16 17 18 17 18 16 18 18 17 12
5 9 11 9 8 10 10 10 12 11 11 11 13 13 12 12 11 10 11 10 11 11 10 11 11 13 13 11 11 12 11 12 13 13 13 14 14 13 13 14 15 16 16 16 17 17 17 17 17 16 16 16 16 15 15 15 14 14 13 14 14 14 14 11 13 10 9 7 9 7 6 6 7 4 14 15 16 17 16 12 12 15 17 16 15
4 7 11 9 7 10 10 9 11 12 11 10 12 12 12 12 11 11 11 9 10 11 10 12 14 12 12 12 12 11 11 12 12 12 13 14 13 13 13 14 14 14 15 15 16 16 16 16 16 16 16 16 15 15 15 14 14 14 13 13 14 15 13 11 12 12 8 7 8 8 10 11 5 6 13 15 15 16 15 12 10 11 11 15 16
5 7 9 9 8 10 10 10 9 9 9 9 12 11 11 11 11 10 10 9 10 11 11 10 11 12 12 11 11 11 11 11 12 12 12 12 14 13 14 15 15 15 15 15 15 15 16 16 16 15 15 15 15 14 14 14 14 13 13 13 13 14 13 9 7 5 8 9 8 7 8 12 6 5 13 15 14 12 8 8 11 13 14 14 15
6 7 10 8 9 8 10 9 9 10 8 8 11 11 10 10 10 10 10 9 11 10 10 10 11 11 11 11 10 10 10 10 10 11 12 13 13 14 14 14 14 15 15 15 14 14 15 15 15 14 15 14 14 14 14 14 13 13 13 13 13 13 11 9 7 6 6 7 7 6 5 5 5 9 16 15 14 14 11 17 13 14 14 15 14
7 10 9 8 6 9 10 9 9 8 8 8 11 11 11 9 10 11 10 10 12 11 11 11 10 11 11 10 9 10 10 9 11 12 11 12 12 13 13 13 14 14 14 14 14 14 14 14 14 14 14 13 13 13 13 13 13 13 12 12 12 11 10 7 4 5 6 5 5 5 6 4 4 13 14 15 14 13 12 16 13 13 14 14 13
8 9 7 7 5 9 10 9 8 6 7 7 8 9 9 7 11 11 10 10 10 11 12 11 10 10 11 11 10 9 9 10 10 10 11 12 12 12 12 12 13 13 13 13 13 13 13 13 13 13 12 12 12 12 12 12 12 12 11 11 10 7 10 2 5 4 5 5 6 7 6 5 3 11 13 12 13 13 12 12 11 14 13 13 12
9 8 7 7 6 5 9 8 8 7 7 8 8 8 8 9 13 12 11 11 10 10 10 10 10 10 10 9 9 9 9 9 8 9 10 11 12 12 12 12 13 12 13 13 12 12 12 12 12 11 11 11 11 11 11 11 11 11 11 10 9 10 11 5 5 4 4 5 6 6 6 4 8 9 10 11 11 11 12 12 12 12 12 12 12
7 8 8 7 6 6 5 7 8 7 6 7 8 7 8 10 12 12 12 10 10 10 10 10 9 9 10 10 11 11 11 11 10 7 5 11 12 12 12 12 12 12 12 12 11 12 11 11 11 10 10 10 10 10 10 10 9 9 9 8 8 9 10 6 4 3 4 6 6 6 6 4 13 6 8 9 10 10 10 11 11 11 11 11 10
7 8 8 7 8 6 6 5 6 8 7 8 8 7 8 9 7 10 10 9 8 8 11 10 9 10 13 12 11 11 11 10 10 10 10 11 9 9 9 10 11 11 11 11 11 11 11 10 10 9 9 9 9 9 9 8 8 7 7 7 7 7 8 7 1 2 2 5 5 5 5 5 9 11 11 11 8 9 10 10 11 11 11 11 11
4 6 8 7 7 8 7 6 6 5 4 6 8 8 8 10 10 9 9 9 8 7 10 9 11 12 11 10 10 10 10 10 9 9 9 8 8 8 11 11 10 11 11 11 10 10 10 9 9 9 9 8 8 8 7 7 6 5 5 7 7 9 9 8 1 3 6 7 5 5 5 7 10 9 10 9 7 7 9 9 9 9 8 7 7
4 4 8 6 6 9 8 7 6 6 5 5 4 7 10 10 10 10 10 10 8 10 11 11 11 11 10 10 9 9 9 9 9 9 8 7 8 8 9 9 10 10 10 9 9 9 8 8 8 8 8 8 8 7 6 6 3 3 4 5 6 7 9 6 1 3 6 6 5 5 5 9 9 8 9 8 9 8 7 7 7 7 6 7 7
3 4 6 5 4 6 8 7 7 8 6 6 6 5 8 10 10 10 10 9 10 10 11 11 11 10 10 10 10 7 7 7 9 7 8 9 8 7 9 8 8 9 9 8 8 8 8 7 7 7 6 7 6 6 5 4 2 3 4 5 6 7 5 2 3 4 6 5 4 3 6 9 10 9 8 10 9 9 9 9 10 10 10 10 11
3 3 6 4 5 4 8 6 5 10 8 7 7 6 7 10 8 9 10 10 10 10 10 11 10 9 9 9 8 5 4 4 5 4 7 5 7 9 8 7 6 7 7 7 8 7 7 6 6 6 4 4 4 4 5 3 2 5 4 3 4 4 5 3 1 4 6 5 5 3 8 7 9 9 9 10 9 9 10 9 9 10 10 10 10
4 4 6 5 5 4 6 7 6 7 7 6 6 6 6 8 6 6 5 6 8 9 8 5 6 5 8 6 5 5 5 4 4 6 5 4 5 7 8 7 7 6 5 7 7 6 5 4 4 3 3 3 4 1 2 5 6 5 6 3 3 2 2 3 2 4 5 4 4 5 6 6 7 8 8 9 10 10 9 10 11 11 11 10 10
5 4 6 7 6 4 4 6 6 5 6 7 6 6 7 6 6 6 5 6 6 6 5 5 4 4 4 5 5 5 5 4 5 5 5 7 6 7 8 8 7 8 8 8 5 5 4 3 3 3 4 3 1 4 4 5 4 7 6 2 5 0 3 1 3 3 4 5 3 6 5 5 5 7 7 8 9 9 10 11 11 11 11 11 10
7 5 5 5 7 6 5 4 6 6 5 6 6 7 6 5 6 6 6 5 5 5 5 6 5 5 5 5 5 6 5 6 7 11 8 5 4 5 7 7 7 6 8 4 4 3 4 3 4 4 3 3 3 5 6 4 5 4 4 4 2 0 0 3 4 4 2 4 4 6 5 4 5 6 6 7 8 8 8 9 10 11 11 11 11
7 6 6 5 7 8 7 5 4 5 4 6 7 7 7 6 6 7 7 6 6 5 5 7 5 6 7 6 4 5 6 6 6 5 6 5 4 4 4 4 4 3 4 3 4 3 3 3 3 3 4 4 5 1 3 3 1 1 1 3 3 2 2 2 3 3 3 3 4 7 4 3 4 5 6 7 8 9 9 10 10 10 11 11 12
7 7 7 6 7 6 9 6 6 5 5 4 5 6 7 6 6 7 7 6 7 6 5 6 6 6 6 6 2 6 6 6 5 5 5 6 6 5 5 5 5 5 5 4 5 4 4 4 4 4 5 3 1 1 2 2 3 3 2 2 2 3 3 2 1 2 1 4 3 7 5 3 4 6 6 7 7 8 9 8 9 10 11 10 11
6 7 7 6 7 6 9 6 8 6 6 5 5 5 5 4 5 6 6 6 6 6 6 6 6 5 6 5 3 6 5 6 6 6 6 6 6 6 6 6 6 6 6 5 4 6 6 6 5 4 1 1 2 3 4 1 1 1 2 2 2 3 2 2 1 2 2 2 4 7 5 5 5 6 7 6 7 8 8 8 9 10 11 12 13
6 6 7 6 8 8 9 6 8 7 6 6 7 5 5 4 5 5 4 4 7 6 6 7 6 6 6 5 3 6 5 6 6 6 5 6 5 6 7 7 7 6 6 6 4 4 4 4 3 2 3 3 3 3 3 5 3 3 2 0 0 2 2 0 1 1 1 1 4 5 7 4 6 8 7 7 8 8 9 9 11 12 12 13 14
7 8 9 8 10 8 9 9 8 9 7 6 7 6 7 5 6 5 5 5 5 7 6 6 7 6 6 4 3 5 6 4 5 5 3 3 4 4 3 4 5 4 6 3 6 4 4 3 4 4 3 5 3 3 1 1 2 1 1 0 0 2 3 1 1 0 1 1 5 5 6 6 8 9 8 8 8 10 11 12 11 12 12 13 13
9 8 9 8 10 9 10 10 10 9 9 7 6 6 7 6 5 6 7 5 5 5 5 6 6 6 6 5 4 3 6 6 6 5 5 4 3 3 1 3 5 3 5 3 4 4 4 4 4 5 3 1 3 1 1 2 2 2 2 2 1 1 3 0 1 0 0 0 4 5 7 8 9 9 9 10 11 12 11 11 11 11 11 11 12
10 9 7 6 9 10 9 10 9 8 8 8 6 6 7 6 5 5 7 6 6 5 5 5 6 6 6 7 4 5 4 6 6 6 5 5 4 4 4 4 5 4 6 5 6 5 4 3 3 1 0 1 2 2 1 2 1 3 2 3 2 1 1 0 1 1 0 1 1 6 6 8 11 9 9 11 12 12 12 11 11 11 11 10 12
9 10 8 7 7 10 9 10 9 10 9 8 7 6 7 7 6 6 6 7 6 6 5 5 6 6 5 7 6 6 4 4 7 7 6 5 5 5 5 4 5 4 5 3 3 4 1 0 3 1 0 1 1 3 4 1 2 4 2 2 3 3 1 1 1 1 1 1 1 6 5 6 11 8 8 11 11 12 12 11 12 12 11 11 13
6 8 9 9 8 9 10 10 9 10 10 10 9 8 7 8 8 7 6 7 7 6 6 6 5 5 5 7 7 6 6 4 4 7 6 6 6 6 6 5 6 5 5 5 3 2 2 1 2 2 1 2 3 4 4 4 4 4 4 3 2 1 3 1 2 1 2 0 0 6 6 6 5 8 8 8 11 12 12 11 12 12 12 12 12
7 6 9 11 9 6 7 7 8 10 10 9 8 8 7 7 7 7 7 7 7 7 6 6 6 6 5 5 7 6 7 6 5 4 5 6 6 7 6 6 5 5 5 6 5 2 3 3 4 4 5 6 5 4 6 5 4 2 1 2 4 4 2 1 2 2 2 1 4 4 6 7 5 5 5 8 11 12 12 11 12 12 12 13 15
6 6 9 10 10 8 8 7 8 9 9 9 9 9 6 7 7 7 7 7 7 7 7 7 7 6 6 6 6 6 7 7 5 7 5 5 5 6 6 6 6 5 6 6 6 5 5 4 4 4 4 4 5 5 3 3 3 1 1 0 1 0 0 2 1 2 3 3 5 4 4 5 6 5 5 5 8 12 12 12 12 12 13 15 15
9 8 8 9 11 9 9 7 8 9 11 10 7 8 8 7 7 7 7 7 7 7 7 7 7 7 7 7 7 6 6 7 6 6 7 6 6 6 7 6 6 5 6 6 6 6 5 5 5 4 3 4 3 4 3 4 3 3 2 1 2 1 0 1 1 3 2 4 5 4 5 4 3 6 6 5 5 9 12 11 12 13 13 14 15
10 9 9 9 11 11 11 10 10 9 9 10 7 5 7 7 7 8 8 8 8 7 7 7 7 7 7 7 8 8 7 7 7 6 7 7 7 6 6 7 6 6 6 5 6 6 4 4 5 5 4 3 2 3 3 3 3 3 2 3 3 1 2 3 2 4 2 2 4 5 5 3 1 3 5 6 6 6 11 12 11 11 11 14 15
10 10 10 10 11 11 11 11 9 9 7 8 8 6 6 7 6 7 6 8 8 7 7 7 7 7 7 7 9 9 8 7 7 7 6 7 7 6 6 7 7 6 6 6 6 5 4 4 4 3 4 3 3 3 3 3 3 3 3 2 1 2 2 1 4 3 2 3 4 5 5 4 4 3 3 5 6 7 7 11 12 10 11 13 15
9 10 9 9 8 8 9 11 10 10 9 7 7 5 4 3 4 6 6 6 7 7 7 7 7 7 7 8 8 9 8 8 7 7 7 6 7 7 6 6 7 7 7 6 6 5 5 4 4 4 4 5 5 4 3 1 1 0 1 2 2 1 2 4 2 2 2 4 5 4 5 5 4 4 4 4 6 7 6 6 6 5 7 13 15
8 10 10 9 9 8 8 9 10 9 9 9 7 8 7 6 6 4 5 7 6 7 6 6 6 6 6 7 7 8 8 8 8 7 7 7 6 7 7 6 6 7 7 6 7 7 7 5 5 5 4 4 5 3 2 1 1 1 2 3 2 3 3 3 2 4 5 4 4 3 5 5 5 4 4 4 4 5 6 5 5 5 5 9 14
8 10 10 10 11 11 9 11 11 10 9 10 9 10 10 9 8 9 9 7 8 7 7 7 7 7 6 7 7 7 7 8 8 8 8 8 8 7 7 6 6 7 8 7 6 7 7 6 5 5 5 3 3 4 4 3 2 1 3 4 3 2 4 3 4 4 4 6 5 4 3 5 4 5 4 4 4 4 4 6 6 5 5 5 8
11 11 12 12 11 11 11 10 10 11 11 10 9 9 10 9 10 10 8 8 8 9 9 8 8 7 8 8 7 7 8 8 9 9 9 9 8 8 8 8 7 7 7 6 6 6 6 6 5 4 4 5 4 5 5 5 1 4 2 3 1 1 1 2 3 4 4 4 4 4 4 4 4 5 5 5 4 4 4 4 5 6 4 5 6
12 13 12 11 12 12 11 10 10 12 12 11 10 10 8 8 9 7 9 7 6 6 7 7 7 8 7 8 9 8 8 7 8 10 9 9 9 8 8 8 8 8 7 7 7 7 7 7 7 7 5 4 4 3 6 7 5 3 1 2 1 2 2 2 2 4 4 4 5 5 5 4 3 3 6 6 5 5 4 4 4 4 5 6 6
9 9 10 13 11 11 11 12 11 12 12 12 11 8 8 6 5 5 6 7 6 5 6 7 7 8 9 8 8 9 9 8 7 8 9 9 9 10 8 8 9 9 9 9 8 8 7 7 7 7 6 6 5 5 6 7 4 7 1 4 3 4 1 5 4 3 5 5 6 5 5 5 3 3 6 6 5 6 5 5 4 4 5 5 5
10 11 11 12 11 14 13 13 11 11 11 12 12 9 7 7 6 5 4 6 5 6 7 9 10 10 10 10 11 10 10 10 10 8 9 10 9 9 9 9 9 9 9 9 9 9 8 8 9 8 9 7 7 5 5 7 5 6 6 2 1 1 4 4 5 1 3 4 4 6 5 5 4 4 5 4 5 6 6 4 4 4 4 4 4
12 12 12 12 11 11 12 11 10 10 10 10 13 11 9 9 9 9 10 9 10 10 13 14 12 12 13 10 9 10 10 10 10 11 9 9 10 10 9 9 9 9 9 9 9 8 9 9 10 9 10 9 7 7 6 5 7 7 5 4 1 2 3 2 6 3 2 1 4 4 5 5 5 5 5 5 5 5 6 4 4 4 4 4 4
13 11 10 11 12 11 11 12 12 10 10 9 11 11 11 10 12 12 11 12 12 12 10 8 9 9 8 9 9 9 11 11 11 11 10 9 10 10 10 10 9 9 8 9 9 10 10 10 9 9 9 9 7 8 8 7 2 3 5 5 2 2 3 4 5 4 4 0 2 3 4 5 4 5 5 5 5 6 5 5 4 4 4 3 4
13 10 11 10 13 13 12 13 11 11 11 11 12 13 13 12 11 11 11 12 13 11 9 9 7 7 9 10 8 9 10 11 11 12 12 11 10 10 10 10 9 9 8 9 10 9 8 8 10 10 9 9 10 9 7 8 10 6 5 6 4 2 3 3 1 5 6 6 4 1 1 5 4 4 5 5 6 6 6 5 5 4 4 4 3
9 12 12 12 11 11 11 11 12 12 11 13 13 14 14 13 13 11 12 12 11 9 6 7 7 7 8 9 9 9 10 11 12 12 11 11 10 11 10 9 10 9 8 8 8 9 11 10 10 10 10 9 9 9 7 9 8 8 6 6 4 5 4 4 3 3 3 4 4 6 4 1 3 3 5 4 5 6 6 6 6 5 4 4 3
10 10 8 8 8 8 11 12 13 12 12 13 13 13 14 13 13 14 15 12 9 7 6 7 8 8 9 9 9 10 10 10 11 12 12 11 10 10 10 11 10 9 8 8 8 9 10 10 11 11 11 11 9 10 11 8 9 7 9 8 7 5 5 5 4 3 1 3 6 7 6 8 6 4 4 5 5 5 5 5 5 4 4 4 4
7 7 8 9 8 9 10 12 14 10 11 13 14 15 14 14 14 15 15 13 11 9 8 8 7 7 9 9 8 8 8 10 9 10 11 11 10 10 10 10 10 10 9 10 10 10 10 10 9 10 11 12 9 9 9 7 9 8 9 9 9 9 9 7 7 6 5 4 2 4 4 6 8 6 4 5 6 6 6 5 5 4 4 4 4
Wind_Direction
103 95 96 104 104 111 115 124 122 121 106 101 101 101 98 94 87 79 82 87 89 92 95 90 79 79 81 76 74 76 79 75 72 75 82 82 82 81 80 79 78 79 79 80 77 76 79 77 74 72 70 67 65 63 62 62 61 60 59 58 59 61 61 61 64 69 73 67 60 58 58 57 57 57 57 57 57 56 56 57 56 56 57 51 51
116 118 101 107 112 112 117 114 120 117 105 101 100 100 100 95 92 98 92 87 91 94 92 88 90 88 89 86 86 84 77 76 78 77 72 74 74 78 81 83 81 81 82 82 81 79 77 76 73 71 69 67 64 63 62 62 62 62 60 57 56 54 52 53 62 73 77 74 64 57 57 59 58 59 58 56 56 54 54 59 59 58 58 56 54
115 99 105 107 113 115 113 119 117 115 106 99 99 101 102 105 103 97 97 103 98 94 95 91 89 91 90 90 86 88 84 81 84 81 82 81 81 81 79 79 77 74 74 79 80 78 76 75 75 72 69 67 65 64 64 63 62 61 60 57 54 48 38 30 27 45 61 71 69 61 54 59 63 61 56 56 57 55 53 55 53 58 61 58 63
106 106 104 104 107 115 116 120 117 106 105 103 102 101 101 101 104 100 104 101 98 92 88 88 86 85 85 85 87 87 91 89 85 84 85 85 87 93 95 88 84 81 86 89 84 81 79 78 76 74 70 68 67 65 63 63 61 61 60 57 51 43 33 25 17 13 44 76 75 69 53 42 51 63 61 58 60 57 52 45 49 58 56 50 49
111 117 115 115 113 118 116 112 112 111 111 113 111 108 103 104 104 102 101 97 94 95 94 92 95 96 94 87 82 75 81 88 88 88 85 86 85 82 78 73 83 89 86 84 83 82 81 79 76 73 71 68 65 64 63 62 61 59 55 51 43 34 27 18 14 14 51 84 80 71 51 41 33 51 61 62 70 66 53 49 47 60 60 52 51
123 129 120 118 118 120 115 117 118 118 116 114 106 102 104 103 96 98 87 95 103 95 89 87 86 81 81 83 85 86 85 80 80 82 82 79 78 79 90 86 85 90 89 87 85 84 82 78 75 73 70 68 66 65 63 62 60 57 53 46 38 29 22 17 13 39 44 66 77 71 64 51 42 44 53 49 74 84 57 53 55 55 54 52 50
129 124 124 117 122 119 119 120 120 121 119 117 117 111 104 101 104 103 100 94 89 85 88 89 87 88 93 94 88 97 94 89 87 85 87 85 84 84 88 91 90 87 87 86 85 84 82 79 76 73 71 68 66 65 64 61 59 54 48 41 33 25 20 17 29 45 42 43 62 74 71 61 65 60 54 50 40 33 62 58 56 52 49 50 50
139 135 117 119 120 127 118 119 121 121 122 118 108 106 110 110 101 103 99 86 85 88 90 87 92 95 91 87 95 95 97 99 97 94 94 92 91 90 91 94 90 87 85 85 85 84 83 80 76 74 71 67 65 64 62 60 56 52 44 35 27 21 13 15 48 68 50 42 43 72 69 56 47 77 56 52 55 46 46 48 52 52 50 56 53
153 119 115 119 125 126 118 118 120 122 121 123 116 112 110 112 104 102 98 102 103 99 93 104 99 95 99 101 103 107 102 94 86 88 90 91 92 92 93 92 90 86 86 85 85 84 81 79 77 74 70 67 65 62 61 58 55 52 45 36 27 21 14 12 43 66 71 57 48 48 62 49 33 34 65 54 52 52 52 51 44 43 39 36 44
123 101 110 118 127 130 124 119 120 120 116 116 116 116 117 117 111 101 101 103 106 105 102 88 91 100 100 105 103 102 103 100 97 96 92 91 93 94 95 92 91 91 88 86 86 84 82 78 75 72 70 67 64 62 60 57 55 51 46 35 29 21 16 41 51 51 55 59 52 48 51 44 29 29 54 58 55 50 47 49 53 45 43 41 39
121 115 112 116 128 131 126 123 117 115 115 119 123 119 116 118 119 114 110 109 106 105 104 97 97 98 97 98 96 98 98 95 96 97 95 94 92 93 88 85 84 83 83 82 81 82 80 77 73 71 69 67 64 62 58 56 54 50 42 33 24 18 17 37 38 64 74 69 59 53 53 53 43 39 57 57 57 64 74 60 51 50 45 43 42
119 101 102 111 126 128 124 123 120 117 121 132 126 124 118 117 119 119 117 116 109 109 110 109 103 100 99 102 103 102 100 99 97 90 93 94 90 87 88 86 84 82 80 81 82 81 80 77 74 73 70 68 64 61 58 55 50 45 38 29 21 14 13 27 41 49 76 86 88 83 67 51 49 55 57 58 54 46 44 53 57 44 48 44 44
113 93 110 114 111 119 124 125 122 123 122 125 133 126 126 131 130 124 126 119 110 113 114 110 106 106 109 110 115 114 111 113 105 104 97 94 93 92 89 87 85 83 83 83 85 84 81 78 76 74 72 69 66 62 58 54 49 42 35 30 23 14 3 15 41 58 73 79 86 83 62 41 40 57 56 55 55 52 40 44 44 48 53 49 44
107 109 120 118 111 115 114 110 106 114 123 115 107 106 101 120 134 126 117 106 114 115 117 115 113 118 116 116 108 101 104 103 100 100 97 94 96 93 90 89 85 85 84 84 82 84 83 82 79 77 75 71 68 64 59 53 47 41 31 24 18 12 12 36 45 60 84 84 75 70 64 32 38 53 58 56 51 52 48 37 31 38 48 50 44
110 121 118 114 120 112 112 112 106 94 113 121 115 109 110 112 129 129 120 116 111 110 115 118 108 105 103 105 112 109 107 108 115 105 110 108 100 95 96 94 92 89 87 86 84 80 81 81 80 78 76 74 70 67 60 53 46 36 27 14 8 15 22 19 35 38 49 76 73 59 44 32 16 65 58 57 55 52 46 45 39 39 39 40 42
115 117 121 132 127 121 112 110 100 103 96 119 120 112 113 121 129 129 126 123 122 120 116 115 115 118 117 97 86 87 76 65 55 56 68 103 105 104 100 97 97 96 95 94 93 86 84 83 82 81 79 77 75 69 64 56 45 33 21 5 4 13 18 12 46 20 44 78 71 60 42 8 357 44 40 46 60 48 46 41 40 41 39 38 35
117 131 127 140 134 147 132 126 116 107 101 118 121 116 103 104 119 128 126 123 125 129 120 122 123 116 87 84 83 77 75 68 64 56 54 67 94 110 113 106 99 98 95 94 89 89 84 85 84 84 83 80 77 73 67 59 46 27 7 360 355 358 356 2 79 54 35 67 77 66 43 1 10 34 32 26 32 49 39 41 36 34 33 33 33
127 131 128 142 153 147 146 136 138 137 125 120 123 119 107 109 110 107 110 111 100 94 120 111 91 90 89 84 84 82 79 72 64 56 52 57 54 81 100 109 105 102 98 94 93 91 92 89 89 88 87 85 81 78 71 63 49 21 348 346 347 337 340 336 275 63 51 76 67 58 46 5 17 33 36 28 33 52 36 40 34 29 26 27 26
146 153 137 152 167 147 144 144 155 154 149 134 132 121 116 114 113 110 111 111 106 104 109 107 107 102 101 98 89 91 85 83 70 66 56 51 60 63 101 112 117 108 104 101 100 99 98 93 93 92 92 89 89 81 72 66 48 1 337 330 325 330 314 316 5 88 72 81 69 57 48 19 12 32 45 39 34 25 44 35 30 17 9 8 5
177 165 143 155 163 148 143 151 167 159 166 151 138 130 123 121 120 119 115 114 114 115 119 116 114 114 114 113 109 99 98 96 95 78 72 65 64 73 84 89 106 117 113 111 107 106 102 100 94 97 96 98 94 91 80 71 36 317 306 316 326 324 310 272 47 73 82 82 84 61 43 21 7 4 21 32 29 25 23 21 10 4 356 354 353
186 167 143 162 159 159 149 150 178 155 175 156 139 132 130 120 116 117 119 121 122 122 121 122 121 125 126 134 137 133 132 128 109 104 82 73 72 74 81 89 106 112 114 115 112 105 103 102 102 99 108 125 121 118 140 146 212 244 261 256 295 319 279 337 38 80 95 92 76 58 47 18 8 6 2 6 19 11 17 5 4 0 356 357 354
181 181 152 168 153 176 151 152 182 165 166 143 143 137 147 134 129 128 122 125 125 127 131 137 137 143 148 158 167 170 154 166 139 122 114 103 75 86 84 85 79 90 120 123 115 109 109 113 116 123 159 170 147 155 239 193 227 243 248 286 290 244 322 316 38 91 96 94 95 87 59 31 13 1 6 3 2 7 5 356 354 2 357 2 356
178 191 167 165 157 169 173 159 166 176 146 144 141 144 157 149 145 142 136 145 149 149 152 148 158 152 174 187 199 164 173 145 138 134 125 100 98 92 93 89 88 86 89 107 118 131 130 141 150 196 220 241 200 243 225 215 225 256 277 269 249 210 270 355 27 86 113 117 98 86 72 39 14 5 6 3 356 2 1 354 352 355 356 6 8
172 177 176 168 160 160 184 169 161 169 144 140 139 150 170 173 160 154 149 156 164 181 168 165 178 165 190 209 220 181 134 116 116 122 122 124 109 93 103 107 113 113 117 113 133 144 161 172 200 236 254 250 254 227 214 203 219 209 242 228 205 236 348 42 42 28 78 101 106 101 81 55 24 360 0 355 355 358 354 353 355 352 358 13 12
162 166 166 181 171 161 174 168 169 160 158 147 153 163 178 184 164 156 154 168 168 196 190 172 185 173 197 217 218 153 125 132 134 141 149 142 148 145 150 159 158 157 174 186 175 172 193 204 216 221 235 242 224 287 16 359 317 44 210 49 8 358 46 60 75 39 63 125 126 113 99 73 15 5 358 353 354 355 353 357 354 358 7 17 22
153 169 169 179 173 170 166 168 170 163 165 157 169 164 167 190 158 165 153 175 167 185 199 173 190 173 201 221 181 155 126 147 143 162 186 160 162 175 181 186 179 179 187 213 194 177 199 206 202 221 237 217 93 81 23 0 340 0 356 46 25 355 358 34 70 79 0 128 134 124 115 77 28 15 7 0 357 358 5 7 352 7 14 26 33
167 169 165 173 171 181 166 167 167 170 172 163 181 152 173 189 146 154 151 174 164 178 199 175 191 171 201 216 175 164 151 157 158 181 204 165 173 186 186 192 189 171 191 210 195 174 198 194 192 218 233 131 211 179 185 200 206 270 325 19 40 330 333 41 0 41 353 106 140 129 105 75 55 39 19 10 10 15 17 13 12 18 31 37 42
158 174 169 168 171 182 166 172 166 170 172 177 178 161 173 188 150 142 155 190 163 183 200 178 186 175 196 216 185 158 178 161 173 185 207 162 188 187 192 175 170 175 189 201 163 176 213 188 173 186 201 233 233 205 189 196 204 186 214 200 279 302 306 274 81 48 334 15 134 133 108 94 65 49 31 27 32 30 30 32 35 34 34 39 40
172 178 173 172 171 180 168 176 168 171 173 188 178 167 170 182 164 159 167 201 176 182 196 175 178 172 183 210 196 160 186 178 164 180 174 196 198 194 168 159 178 184 170 182 156 194 206 168 171 202 208 221 215 203 211 236 221 207 146 132 1 319 311 322 97 259 287 52 132 124 111 94 65 56 47 48 45 48 47 42 38 38 38 42 44
187 182 169 173 165 175 172 178 172 174 172 186 187 163 163 177 175 167 172 178 192 192 189 178 183 169 175 197 206 191 177 186 165 174 173 197 202 164 183 191 181 184 153 187 175 181 199 193 194 202 194 229 282 194 136 289 303 242 180 155 182 251 276 166 132 167 249 46 116 123 118 94 78 68 66 63 62 56 47 42 38 38 40 45 50
180 186 173 169 162 172 173 178 171 174 169 181 184 169 161 175 184 173 165 174 186 203 198 187 188 176 173 184 194 209 198 176 166 175 180 180 187 165 197 214 174 196 167 189 174 200 207 196 188 143 81 26 353 330 240 222 271 303 252 165 185 229 268 163 213 210 125 112 85 121 116 103 87 77 78 74 64 55 49 43 45 45 47 52 56
184 182 173 171 162 173 174 178 173 174 168 179 179 180 172 175 180 177 173 173 177 200 198 193 186 186 179 177 188 198 222 197 167 174 179 174 178 176 197 204 190 194 164 178 167 170 231 32 113 96 89 334 303 298 289 258 252 245 240 162 188 205 212 231 229 179 125 106 258 113 126 110 99 100 88 83 70 63 55 52 52 55 57 62 70
193 175 167 169 180 172 178 180 177 173 174 178 180 187 174 170 173 181 178 170 178 188 192 196 193 189 185 175 180 187 209 214 181 171 177 173 177 183 193 201 192 176 180 176 151 145 169 229 122 172 248 256 244 249 263 243 233 244 223 185 155 213 212 191 218 147 139 140 65 107 128 117 112 100 90 82 78 70 63 61 62 64 65 71 72
188 176 166 175 177 173 176 177 180 172 179 180 177 187 180 171 171 177 175 170 175 181 190 189 189 192 189 172 177 182 191 207 186 180 174 179 182 181 187 195 192 196 177 151 149 171 196 187 208 179 214 224 232 227 228 246 246 235 204 197 171 205 175 221 219 163 138 141 98 85 108 131 124 115 101 91 85 75 69 69 72 74 75 75 74
179 182 182 172 173 174 172 179 178 171 181 187 180 184 183 171 173 174 178 173 174 182 190 187 184 186 178 185 180 186 189 194 194 178 184 186 189 184 185 192 189 205 155 157 159 183 198 205 195 205 231 228 224 234 214 232 253 287 265 81 298 168 104 243 233 167 143 144 104 102 79 87 127 135 125 109 87 84 75 75 75 77 79 78 77
186 187 184 173 177 177 172 177 178 175 183 193 187 179 184 177 175 177 180 173 176 183 189 191 182 180 176 182 186 191 192 192 194 179 180 191 194 189 189 191 195 181 164 161 167 184 193 201 209 190 212 256 258 265 236 220 228 239 229 206 228 122 73 310 323 93 102 75 116 101 86 75 94 118 150 124 107 95 86 80 77 77 78 78 73
186 183 184 182 178 179 173 181 182 185 178 191 194 182 180 182 179 181 184 173 177 184 187 186 186 182 180 178 184 189 195 194 192 185 176 189 199 192 190 189 191 172 166 170 181 195 192 197 208 197 181 213 241 261 273 243 245 223 201 217 223 189 212 227 126 130 103 100 129 111 107 134 136 85 91 128 119 104 96 90 75 68 67 73 67
186 184 187 187 183 179 177 180 179 188 188 183 195 192 187 182 184 179 181 177 184 184 184 184 191 187 183 184 179 185 192 194 192 187 184 187 194 194 194 187 184 171 171 178 191 190 200 197 200 205 186 189 231 248 260 256 236 221 210 199 227 208 239 113 129 133 140 156 127 135 149 154 113 96 103 106 127 115 110 99 90 74 68 68 63
183 184 184 186 188 183 173 177 180 181 190 190 185 194 204 208 191 179 188 188 188 188 185 190 190 188 189 185 178 181 188 190 193 187 187 190 191 197 200 193 176 174 175 184 188 189 203 200 186 216 196 184 192 214 216 223 311 255 212 245 222 172 106 115 139 134 116 122 119 140 137 131 113 111 107 101 114 134 127 120 110 96 79 73 63
181 184 182 183 189 189 174 178 184 179 180 191 183 189 197 205 206 204 201 203 191 188 196 194 189 193 192 185 180 175 180 187 190 192 189 192 194 195 197 197 177 173 183 190 190 187 193 198 204 201 216 209 203 218 221 209 258 274 255 265 193 160 123 151 150 134 132 121 142 161 144 134 124 126 109 111 106 124 142 141 125 119 106 88 77
185 185 186 186 187 192 182 184 185 183 184 188 192 190 194 197 207 208 208 199 198 187 193 197 197 195 192 188 180 176 175 183 190 191 194 195 197 194 192 198 185 179 186 198 192 188 187 188 195 188 199 209 223 207 215 161 150 306 282 256 243 165 146 149 157 139 137 159 178 157 126 112 129 120 126 110 99 98 96 115 130 128 120 109 83
192 188 191 189 188 190 195 188 178 188 194 196 195 196 197 199 197 203 199 201 197 196 199 198 202 197 196 191 187 185 184 185 190 192 196 195 196 195 192 193 188 189 190 192 191 188 188 186 173 196 196 193 222 199 199 131 189 208 218 251 58 15 157 204 177 160 152 159 144 121 110 115 124 139 128 115 104 96 93 91 108 134 143 118 97
188 192 191 187 188 192 196 190 183 188 196 196 196 203 197 199 198 201 197 205 215 207 204 202 200 204 204 198 194 194 194 196 190 196 197 198 197 195 194 189 190 183 188 198 193 194 190 186 180 181 193 206 214 215 172 168 184 148 87 90 199 151 310 320 217 166 166 165 130 117 131 127 153 157 140 126 112 103 94 93 87 89 99 97 95
190 196 193 193 192 197 196 192 191 188 193 196 198 199 199 200 200 195 198 206 206 204 205 206 206 205 213 204 201 198 200 201 205 197 201 200 196 197 194 192 192 188 190 195 196 196 187 186 185 188 172 193 205 228 181 185 147 136 188 182 210 152 192 242 195 221 181 173 145 147 136 149 158 108 109 120 128 115 109 101 99 95 98 108 111
196 198 197 194 197 198 197 194 194 193 190 190 191 189 183 194 196 204 203 203 215 209 206 211 206 206 210 207 206 198 198 202 210 213 201 202 199 197 198 197 193 193 194 194 194 198 193 191 189 191 194 187 198 195 209 185 189 183 146 130 245 249 216 204 149 229 166 157 158 138 135 145 147 126 113 120 120 122 120 110 110 100 100 105 111
199 203 198 199 198 198 194 194 196 196 197 189 187 186 193 191 187 193 202 203 207 205 208 207 199 201 207 206 201 198 201 202 205 219 216 203 202 201 198 199 200 195 193 193 191 190 198 195 196 193 198 198 181 187 197 211 190 197 206 181 149 173 185 202 132 202 254 211 157 139 146 145 136 132 135 132 129 131 125 127 114 112 109 104 109
205 199 195 200 201 196 193 192 194 196 194 189 179 184 195 200 200 201 203 205 210 216 214 208 205 204 194 200 202 199 202 202 206 210 222 213 208 204 202 202 202 200 191 190 194 195 194 198 192 194 196 191 186 191 186 187 159 252 226 226 149 188 180 135 197 121 173 179 172 152 158 143 139 133 146 155 145 135 134 128 127 120 113 109 107
199 184 197 198 198 198 192 193 194 194 193 189 181 185 193 199 203 206 207 214 216 220 207 213 203 185 191 198 195 199 200 203 205 209 215 218 213 211 207 205 204 203 191 198 200 196 192 196 195 195 192 191 193 197 183 178 182 207 203 225 220 218 252 237 195 163 160 161 209 251 106 150 146 161 157 155 149 144 140 138 136 132 125 116 106
182 188 195 198 198 195 194 194 196 196 194 190 189 188 193 196 201 205 213 219 219 220 208 201 200 185 192 195 196 198 199 203 206 209 212 215 210 212 211 210 207 207 200 204 202 195 194 194 196 196 196 193 193 195 181 185 186 190 172 213 198 208 223 239 207 150 147 152 198 175 187 193 136 158 148 148 144 139 144 151 152 151 147 140 133
189 191 188 186 195 195 197 196 202 198 195 192 193 192 192 192 200 207 213 215 211 213 199 205 201 192 203 196 192 195 199 202 206 207 211 213 208 206 210 212 212 211 210 212 207 202 200 200 198 197 194 192 193 193 199 180 189 182 184 173 181 182 203 226 232 180 179 155 166 197 180 168 176 221 159 143 139 137 137 138 145 150 150 151 144
180 179 185 187 187 195 202 202 206 198 195 197 193 197 194 195 204 207 210 213 207 204 205 214 201 195 205 207 202 197 193 203 201 208 209 208 208 203 210 211 211 212 212 215 214 209 205 202 198 195 194 192 191 195 200 191 182 181 181 180 187 185 189 187 196 194 184 178 153 211 186 189 175 162 208 164 153 153 151 152 156 156 152 143 137